Weather Roundup
Issued by NWS Springfield, MO

Home | Current Version | Previous Version | Text Only | Print | Product List | Glossary On
Versions: 1 2 3 4 5 6 7 8 9 10 11 12 13 14 15 16 17 18 19 20 21 22 23 24 25 26 27 28 29 30 31 32 33 34 35 36 37 38 39 40 41 42 43 44 45 46 47 48 49 50
000
NZUS99 KSGF 052007
HRRSGF

HOURLY WEATHER
NATIONAL WEATHER SERVICE SPRINGFIELD MO
200 PM CST MON DEC 05 2016

......SGF CWA......

CITY           SKY/WX    TMP DP  RH WIND       PRES   REMARKS
SPRINGFIELD    CLOUDY    44  36  73 SE13      29.81F
JOPLIN         MOSUNNY   47  37  68 E9        29.79F
WEST PLAINS    SUNNY     45  34  65 E7        29.87F
ROLLA          MOSUNNY   47  38  71 SE9       29.86F
BRANSON        CLOUDY    45  37  76 SE9       29.84F

......SURROUNDING SGF CWA......

CITY           SKY/WX    TMP DP  RH WIND       PRES   REMARKS
CHANUTE        SUNNY     52  38  58 SE14      29.74F
PARSONS        SUNNY     50  38  63 S9G20     29.77F
COFFEYVILLE    MOSUNNY   49  40  71 S17       29.79F
EMPORIA        SUNNY     51  34  52 S20G26    29.71F
GROVE OK       CLOUDY    50  39  66 SE7       29.82F
ROGERS AR      CLOUDY    48  36  63 E5        29.81F
SILOAM SPRINGS CLOUDY    48  37  66 SE5       29.80F
HARRISON AR    CLOUDY    44  37  76 E8        29.84F
NEAR YELLVILLE CLOUDY    45  34  65 E7        29.83F

......KANSAS AND MISSOURI......

CITY           SKY/WX    TMP DP  RH WIND       PRES   REMARKS
KANSAS CTY INT MOSUNNY   51  33  50 S14       29.76F
DOWNTOWN KC    SUNNY     53  33  46 S16       29.78F
COLUMBIA       CLOUDY    44  38  79 SE10      29.88F
SEDALIA        SUNNY     51  33  50 S15       29.84F
ST JOSEPH      SUNNY     51  35  54 S17       29.76F
ST LOUIS       CLOUDY    46  34  62 SE12      29.94F
SPIRIT OF STL  PTSUNNY   46  37  71 SE7       29.93F
KIRKSVILLE     PTSUNNY   38  37  97 SE13      29.86F WCI  30
WICHITA        MOSUNNY   53  36  52 S21G31    29.66F
TOPEKA         SUNNY     51  38  60 S15       29.75F
OLATHE         SUNNY     49  35  58 S17       29.77F

......TENNESSEE......

CITY           SKY/WX    TMP DP  RH WIND       PRES   REMARKS
MEMPHIS        CLOUDY    46  43  89 E9        29.87F
NASHVILLE      CLOUDY    47  42  83 NE7       29.96F

......ARKANSAS.......

CITY           SKY/WX    TMP DP  RH WIND       PRES   REMARKS
FAYETTEVILLE   MOSUNNY   50  37  61 NE6       29.79F
FT SMITH       PTSUNNY   49  40  71 NE10      29.81F
LITTLE ROCK    CLOUDY    44  42  93 NE9       29.85F

......OKLAHOMA.......

CITY           SKY/WX    TMP DP  RH WIND       PRES   REMARKS
TULSA          CLOUDY    47  42  83 S12       29.77F
PONCA CITY     SUNNY     54  37  52 SE20      29.71F
MCALESTER      CLOUDY    50  42  74 CALM      29.78F
OKLAHOMA CITY  CLOUDY    48  41  76 S17       29.73F

......IOWA............

CITY           SKY/WX    TMP DP  RH WIND       PRES   REMARKS
DES MOINES     PTSUNNY   49  34  56 S24       29.77F
QUAD CITIES    CLOUDY    36  33  89 SE10      29.93F FOG     WCI  28

......ILLINOIS........

CITY           SKY/WX    TMP DP  RH WIND       PRES   REMARKS
QUINCY         CLOUDY    39  37  92 S9        29.90F FOG     WCI  33
CHICAGO        CLOUDY    32  30  92 S10       30.00  WCI  24




USA.gov is the U.S. government's official web portal to all federal, state and local government web resources and services.